Terug naar catalogus

STARLINK-31770

ActiefCommunicatieVLEO
NORAD 59601·PAYLOAD·🇺🇸 United States

Gelanceerd Apr 28, 2024 vanaf Cape Canaveral Space Force Station

Loading…

Volgende Passages (komende 24 uur)

TLE

VersSource: CelesTrak SupGP

Epoch: Sep 15, 2026, 03:07 UTC

1 59601C 24080A   26258.13034722 -.00026590  00000+0 -96288-3 0  2587
2 59601  43.0044  48.3339 0001737 270.0075  24.6022 15.27598461    12

Volg STARLINK-31770 in realtime met AllMySat

Download on the App Store